(980) Anacostia
ephemeris date magn radius delta ra dec elong phase
Today14 Jul 202612.92.284 AU2.742 AU03h34m+31°53'53.2°20.9°
Opposition11 Dec 202611.32.564 AU1.592 AU05h08m+34°42'168.2°4.5°
(980) Anacostia - 2026-07-14
astro.vanbuitenen.nl


 
-1 year
-1 month
-1 day
Now
+1 day
+1 month
+1 year

The interactive orbit chart above shows the body's path through the solar system and its position at the given date. Green and blue lines are shown perpendicular to the ecliptic plane: Green if the path is above the ecliptic plane, blue if it is below. (Left-click and drag to rotate the view; Right-click and drag to move the view; Use scroll wheel to zoom in our out.)

The orbital elements of Anacostia are:

            e (Eccentricity)                : 0.2014131
            a (Semimajor axis)              : 2.7407716
            i (Inclination)                 : 15.89613
            Ω (Longitude of ascending node) : 285.76026
            ω (Argument of perihelion)      : 69.75844
            M (Mean anomaly)                : 20.13681
            Epoch                           : 2026 Jun 09

            L (Longitude of perihelion)     : 354.78274
            B (Latitude of perihelion)      : 14.89089
            P (Orbital period in years)     : 4.54            
        

The light curve chart below shows the estimated development of the minor planet's magnitude.


The all-sky chart below shows the path of the minor planet over the same period as the light curve. The current position is marked yellow.





The following chart shows the path of the minor planet in the next few days. The field of view is optimized for (~10x50) binoculars and finderscopes.




Ephemerides:
Date       Time       RA (2000)    DEC (2000)    delta   radius  elong  phase   PA    magn
2026-07-14 00:00 UT   03 34 34.6   +31 53 40     2.742    2.284   53.2   20.9   265   12.9 
2026-07-14 11:15 UT   03 35 30.6   +31 57 04     2.739    2.285   53.5   20.9   265   12.9 
2026-07-15 00:00 UT   03 36 33.9   +32 00 53     2.735    2.286   53.7   21.0   265   12.9 
2026-07-16 00:00 UT   03 38 33.0   +32 08 01     2.728    2.287   54.2   21.1   265   12.9 
2026-07-17 00:00 UT   03 40 31.8   +32 15 03     2.720    2.289   54.7   21.3   265   12.9 
2026-07-18 00:00 UT   03 42 30.2   +32 21 59     2.712    2.290   55.2   21.4   265   12.9 
2026-07-19 00:00 UT   03 44 28.3   +32 28 50     2.705    2.292   55.7   21.5   265   12.9 
2026-07-20 00:00 UT   03 46 26.1   +32 35 34     2.697    2.293   56.2   21.6   266   12.9 
2026-07-21 00:00 UT   03 48 23.6   +32 42 13     2.689    2.294   56.7   21.7   266   12.9 
2026-07-22 00:00 UT   03 50 20.7   +32 48 45     2.681    2.296   57.2   21.8   266   12.9 
2026-07-23 00:00 UT   03 52 17.4   +32 55 12     2.673    2.297   57.7   22.0   266   12.9 
2026-07-24 00:00 UT   03 54 13.8   +33 01 33     2.665    2.299   58.2   22.1   266   12.9 
2026-07-25 00:00 UT   03 56 09.7   +33 07 48     2.657    2.300   58.8   22.2   266   12.9 
2026-07-26 00:00 UT   03 58 05.3   +33 13 58     2.649    2.302   59.3   22.3   266   12.9 
2026-07-27 00:00 UT   04 00 00.4   +33 20 01     2.641    2.303   59.8   22.4   266   12.9 
2026-07-28 00:00 UT   04 01 55.1   +33 25 60     2.632    2.305   60.3   22.5   266   12.9 
2026-07-29 00:00 UT   04 03 49.4   +33 31 52     2.624    2.306   60.8   22.6   266   12.9 
2026-07-30 00:00 UT   04 05 43.2   +33 37 39     2.616    2.308   61.4   22.7   266   12.9 
2026-07-31 00:00 UT   04 07 36.6   +33 43 20     2.607    2.310   61.9   22.8   266   12.9 
2026-08-01 00:00 UT   04 09 29.5   +33 48 55     2.599    2.311   62.4   22.9   266   12.9 
2026-08-02 00:00 UT   04 11 21.9   +33 54 25     2.590    2.313   62.9   23.0   266   12.9 
2026-08-03 00:00 UT   04 13 13.8   +33 59 49     2.582    2.314   63.5   23.1   266   12.9 


    Terminology:
            
    delta:  distance between minor planet and earth in AU
    radius: distance between minor planet and sun in AU
    magn:   magnitude (brightness) estimate    
    ra:     right ascension in hours (24h = 360deg)
    dec:    declination in degrees
    elong:  elongation in degrees (angle sun-earth-minor planet)    
    phase:  phase angle in degrees (angle sun-minor planet-earth)        
    AU:     Astronomical Unit (mean distance between earth and sun: 149597870.7 km
    

Orbital elements provided by the MPC (Minor Planet Center).
Calculations by a modified version of AAPlus, a C# implementation of the AA+ project by PJ Naughter from the algorithms presented in the book "Astronomical Algorithms" by Jean Meeus.
NGC2000 dso catalog and star labels from VizieR as provided by the Strasbourg astronomical Data Center.
Tycho2 catalog from the ESO archive.